START_TIME,STEP,MOV.,AL01,t_acc.,AL02,t_acc.,E37,t_acc.,H21,t_acc.
1979-07-26 21:00:33.610 ,0,0,0.,24.0,0.,24.0,0.,24.0,0.,24.0
1979-07-26 21:00:57.610 ,0,1,0.,24.0,0.,24.0,0.,24.0,0.,24.0
1979-07-26 21:01:21.610 ,0,0,0.,24.0,0.,24.0,0.,24.0,0.,24.0
1979-07-26 21:01:45.610 ,1,1,0.,24.0,0.,24.0,0.,24.0,0.,24.0
1979-07-26 21:02:09.600 ,1,0,0.,24.0,0.,24.0,0.,24.0,0.,24.0
1979-07-26 21:02:33.600 ,2,1,1.,24.0,0.,24.0,0.,24.0,0.,24.0
1979-07-26 21:02:57.600 ,2,0,0.,24.0,0.,24.0,0.,24.0,0.,24.0
1979-07-26 21:03:21.600 ,3,1,0.,24.0,0.,24.0,0.,24.0,0.,24.0
1979-07-26 21:03:45.600 ,3,0,1.,24.0,0.,24.0,0.,24.0,0.,24.0
1979-07-26 21:04:09.600 ,4,1,0.,24.0,0.,24.0,0.,24.0,0.,24.0
1979-07-26 21:04:33.610 ,4,0,0.,24.0,0.,24.0,0.,24.0,0.,24.0
1979-07-26 21:04:57.610 ,5,1,1.,24.0,0.,24.0,1.,24.0,0.,24.0
1979-07-26 21:05:21.610 ,5,0,0.,24.0,0.,24.0,0.,24.0,0.,24.0
1979-07-26 21:05:45.610 ,6,1,0.,24.0,0.,24.0,0.,24.0,0.,24.0
1979-07-26 21:06:09.610 ,6,0,0.,24.0,0.,24.0,0.,24.0,0.,24.0
1979-07-26 21:06:33.610 ,7,0,5.,24.0,0.,24.0,2.,24.0,0.,24.0
1979-07-26 21:06:57.610 ,7,0,32.,24.0,0.,24.0,1.,24.0,0.,24.0
1979-07-26 21:07:21.610 ,5,1,18.,24.0,0.,24.0,0.,24.0,0.,24.0
1979-07-26 21:07:45.610 ,1,1,0.,24.0,0.,24.0,0.,24.0,0.,24.0
1979-07-26 21:08:09.600 ,2,1,0.,24.0,1.,24.0,1.,24.0,0.,24.0
1979-07-26 21:08:33.600 ,6,1,0.,24.0,0.,24.0,0.,24.0,0.,24.0
1979-07-26 21:08:57.600 ,5,1,11.,24.0,0.,24.0,0.,24.0,0.,24.0
1979-07-26 21:09:21.600 ,1,1,0.,24.0,0.,24.0,0.,24.0,0.,24.0
1979-07-26 21:09:45.600 ,2,1,0.,24.0,0.,24.0,0.,24.0,0.,24.0
1979-07-26 21:10:09.600 ,6,1,0.,24.0,0.,24.0,0.,24.0,0.,24.0
1979-07-26 21:10:33.600 ,5,1,17.,24.0,0.,24.0,0.,24.0,0.,24.0
1979-07-26 21:10:57.600 ,1,1,0.,24.0,0.,24.0,1.,24.0,0.,24.0
1979-07-26 21:11:21.600 ,2,1,0.,24.0,0.,24.0,0.,24.0,0.,24.0
1979-07-26 21:11:45.600 ,6,1,0.,24.0,0.,24.0,0.,24.0,0.,24.0
1979-07-26 21:12:09.600 ,5,1,20.,24.0,0.,24.0,1.,24.0,0.,24.0
1979-07-26 21:12:33.600 ,1,1,1.,24.0,0.,24.0,0.,24.0,0.,24.0
1979-07-26 21:12:57.600 ,2,1,0.,24.0,0.,24.0,0.,24.0,0.,24.0
1979-07-26 21:13:21.600 ,6,1,0.,24.0,0.,24.0,0.,24.0,0.,24.0
1979-07-26 21:13:45.600 ,5,1,10.,24.0,0.,24.0,0.,24.0,0.,24.0
1979-07-26 21:14:09.600 ,1,1,0.,24.0,0.,24.0,1.,24.0,0.,24.0
1979-07-26 21:14:33.600 ,2,1,0.,24.0,0.,24.0,0.,24.0,0.,24.0
1979-07-26 21:14:57.600 ,6,1,0.,24.0,0.,24.0,1.,24.0,0.,24.0
1979-07-26 21:15:21.600 ,5,1,15.,24.0,0.,24.0,0.,24.0,0.,24.0
1979-07-26 21:15:45.600 ,1,1,0.,24.0,0.,24.0,1.,24.0,0.,24.0
1979-07-26 21:16:09.600 ,2,1,0.,24.0,0.,24.0,0.,24.0,0.,24.0
1979-07-26 21:16:33.600 ,6,1,0.,24.0,0.,24.0,1.,24.0,0.,24.0
1979-07-26 21:16:57.600 ,5,1,16.,24.0,0.,24.0,0.,24.0,0.,24.0
1979-07-26 21:17:21.600 ,1,1,0.,24.0,0.,24.0,0.,24.0,0.,24.0
1979-07-26 21:17:45.600 ,0,0,0.,24.0,0.,24.0,1.,24.0,0.,24.0
1979-07-26 21:18:09.600 ,0,0,0.,24.0,0.,24.0,1.,24.0,0.,24.0
1979-07-26 21:18:33.600 ,5,1,19.,24.0,0.,24.0,0.,24.0,0.,24.0
1979-07-26 21:18:57.600 ,5,0,0.,24.0,0.,24.0,0.,24.0,0.,24.0
1979-07-26 21:19:21.600 ,4,1,1.,24.0,0.,24.0,0.,24.0,0.,24.0
1979-07-26 21:19:45.600 ,4,0,0.,24.0,0.,24.0,0.,24.0,0.,24.0
1979-07-26 21:20:09.600 ,3,1,0.,24.0,0.,24.0,1.,24.0,0.,24.0
1979-07-26 21:20:33.600 ,3,0,0.,24.0,0.,24.0,0.,24.0,0.,24.0
1979-07-26 21:20:57.600 ,2,1,0.,24.0,0.,24.0,0.,24.0,0.,24.0
1979-07-26 21:21:21.600 ,2,0,0.,24.0,0.,24.0,0.,24.0,0.,24.0
1979-07-26 21:21:45.600 ,1,1,0.,24.0,0.,24.0,0.,24.0,0.,24.0
1979-07-26 21:22:09.600 ,1,0,0.,24.0,0.,24.0,0.,24.0,0.,24.0
1979-07-26 21:22:33.600 ,0,1,0.,24.0,0.,24.0,1.,24.0,0.,24.0
1979-07-26 21:22:57.600 ,0,0,0.,24.0,1.,24.0,2.,24.0,0.,24.0
1979-07-26 21:23:21.600 ,0,1,1.,24.0,0.,24.0,0.,24.0,0.,24.0
1979-07-26 21:23:45.600 ,0,0,0.,24.0,0.,24.0,0.,24.0,0.,24.0
1979-07-26 21:24:09.600 ,1,1,0.,24.0,0.,24.0,1.,24.0,0.,24.0
1979-07-26 21:24:33.600 ,1,0,0.,24.0,0.,24.0,0.,24.0,0.,24.0
1979-07-26 21:24:57.600 ,2,1,0.,24.0,0.,24.0,0.,24.0,0.,24.0
1979-07-26 21:25:21.600 ,2,0,0.,24.0,0.,24.0,0.,24.0,0.,24.0
1979-07-26 21:25:45.600 ,3,1,0.,24.0,0.,24.0,0.,24.0,0.,24.0
1979-07-26 21:26:09.600 ,3,0,0.,24.0,0.,24.0,0.,24.0,0.,24.0
1979-07-26 21:26:33.600 ,4,1,0.,24.0,0.,24.0,0.,24.0,0.,24.0
1979-07-26 21:26:57.600 ,4,0,0.,24.0,0.,24.0,0.,24.0,0.,24.0
1979-07-26 21:27:21.600 ,5,1,0.,24.0,0.,24.0,1.,24.0,0.,24.0
1979-07-26 21:27:45.600 ,5,0,0.,24.0,0.,24.0,0.,24.0,0.,24.0
1979-07-26 21:28:09.600 ,6,1,0.,24.0,0.,24.0,0.,24.0,0.,24.0
1979-07-26 21:28:33.600 ,6,0,0.,24.0,0.,24.0,0.,24.0,0.,24.0
1979-07-26 21:28:57.600 ,7,1,3.,24.0,0.,24.0,1.,24.0,0.,24.0
1979-07-26 21:29:21.600 ,7,0,25.,24.0,0.,24.0,0.,24.0,0.,24.0
1979-07-26 21:29:45.600 ,7,1,33.,24.0,0.,24.0,0.,24.0,0.,24.0
1979-07-26 21:30:09.600 ,7,0,34.,24.0,0.,24.0,0.,24.0,0.,24.0
1979-07-26 21:30:33.600 ,6,1,26.,24.0,0.,24.0,0.,24.0,0.,24.0
1979-07-26 21:30:57.600 ,6,0,0.,24.0,0.,24.0,0.,24.0,0.,24.0
1979-07-26 21:31:21.600 ,5,1,0.,24.0,0.,24.0,1.,24.0,0.,24.0
1979-07-26 21:31:45.600 ,5,0,0.,24.0,0.,24.0,1.,24.0,0.,24.0
1979-07-26 21:32:09.600 ,4,1,0.,24.0,0.,24.0,0.,24.0,0.,24.0
1979-07-26 21:32:33.600 ,4,0,0.,24.0,0.,24.0,0.,24.0,0.,24.0
1979-07-26 21:32:57.600 ,3,1,0.,24.0,0.,24.0,0.,24.0,0.,24.0
1979-07-26 21:33:21.600 ,3,0,0.,24.0,0.,24.0,1.,24.0,0.,24.0
1979-07-26 21:33:45.600 ,2,1,0.,24.0,0.,24.0,1.,24.0,0.,24.0
1979-07-26 21:34:09.600 ,2,0,0.,24.0,0.,24.0,1.,24.0,0.,24.0
1979-07-26 21:34:33.600 ,1,1,0.,24.0,0.,24.0,0.,24.0,0.,24.0
1979-07-26 21:34:57.600 ,1,0,0.,24.0,0.,24.0,0.,24.0,0.,24.0
1979-07-26 21:35:21.600 ,0,1,0.,24.0,0.,24.0,0.,24.0,0.,24.0
1979-07-26 21:35:45.600 ,0,0,0.,24.0,0.,24.0,0.,24.0,0.,24.0
1979-07-26 21:36:09.600 ,0,1,0.,24.0,0.,24.0,1.,24.0,0.,24.0
1979-07-26 21:36:33.600 ,0,0,0.,24.0,0.,24.0,0.,24.0,0.,24.0
1979-07-26 21:36:57.600 ,1,1,0.,24.0,0.,24.0,0.,24.0,0.,24.0
1979-07-26 21:37:21.600 ,1,0,1.,24.0,0.,24.0,0.,24.0,0.,24.0
1979-07-26 21:37:45.600 ,2,1,0.,24.0,0.,24.0,1.,24.0,0.,24.0
1979-07-26 21:38:09.600 ,2,0,1.,24.0,0.,24.0,0.,24.0,0.,24.0
1979-07-26 21:38:33.600 ,3,1,0.,24.0,0.,24.0,0.,24.0,0.,24.0
1979-07-26 21:38:57.600 ,3,0,0.,24.0,0.,24.0,1.,24.0,0.,24.0
1979-07-26 21:39:21.600 ,4,1,0.,24.0,0.,24.0,0.,24.0,0.,24.0
1979-07-26 21:39:45.600 ,4,0,0.,24.0,0.,24.0,1.,24.0,0.,24.0
1979-07-26 21:40:09.600 ,5,1,0.,24.0,0.,24.0,0.,24.0,0.,24.0
1979-07-26 21:40:33.600 ,5,0,0.,24.0,0.,24.0,0.,24.0,0.,24.0
1979-07-26 21:40:57.600 ,6,1,0.,24.0,0.,24.0,0.,24.0,0.,24.0
1979-07-26 21:41:21.600 ,6,0,0.,24.0,0.,24.0,0.,24.0,0.,24.0
1979-07-26 21:41:45.600 ,7,1,9.,24.0,0.,24.0,0.,24.0,0.,24.0
1979-07-26 21:42:09.600 ,7,0,36.,24.0,0.,24.0,0.,24.0,0.,24.0
1979-07-26 21:42:33.600 ,7,1,28.,24.0,0.,24.0,0.,24.0,0.,24.0
1979-07-26 21:42:57.600 ,7,0,26.,24.0,0.,24.0,0.,24.0,0.,24.0
1979-07-26 21:43:21.600 ,6,1,25.,24.0,0.,24.0,1.,24.0,0.,24.0
1979-07-26 21:43:45.600 ,6,0,0.,24.0,0.,24.0,0.,24.0,0.,24.0
1979-07-26 21:44:09.600 ,5,1,0.,24.0,0.,24.0,1.,24.0,0.,24.0
1979-07-26 21:44:33.600 ,5,0,0.,24.0,0.,24.0,0.,24.0,0.,24.0
1979-07-26 21:44:57.600 ,4,1,0.,24.0,1.,24.0,0.,24.0,0.,24.0
1979-07-26 21:45:21.600 ,4,0,0.,24.0,0.,24.0,0.,24.0,0.,24.0
1979-07-26 21:45:45.600 ,3,1,0.,24.0,0.,24.0,0.,24.0,0.,24.0
1979-07-26 21:46:09.600 ,3,0,0.,24.0,0.,24.0,0.,24.0,0.,24.0
1979-07-26 21:46:33.600 ,2,1,0.,24.0,0.,24.0,1.,24.0,0.,24.0
1979-07-26 21:46:57.600 ,2,0,0.,24.0,0.,24.0,0.,24.0,0.,24.0
1979-07-26 21:47:21.600 ,1,1,0.,24.0,0.,24.0,1.,24.0,0.,24.0
1979-07-26 21:47:45.600 ,1,0,0.,24.0,0.,24.0,0.,24.0,0.,24.0
1979-07-26 21:48:09.600 ,0,1,0.,24.0,0.,24.0,0.,24.0,0.,24.0
1979-07-26 21:48:33.600 ,0,0,0.,24.0,0.,24.0,1.,24.0,0.,24.0
1979-07-26 21:48:57.600 ,0,1,0.,24.0,1.,24.0,0.,24.0,0.,24.0
1979-07-26 21:49:21.600 ,0,0,0.,24.0,0.,24.0,0.,24.0,0.,24.0
1979-07-26 21:49:45.600 ,1,1,0.,24.0,0.,24.0,0.,24.0,0.,24.0
1979-07-26 21:50:09.600 ,1,0,0.,24.0,0.,24.0,0.,24.0,0.,24.0
1979-07-26 21:50:33.600 ,2,1,0.,24.0,0.,24.0,0.,24.0,0.,24.0
1979-07-26 21:50:57.600 ,2,0,0.,24.0,0.,24.0,0.,24.0,0.,24.0
1979-07-26 21:51:21.600 ,3,1,0.,24.0,0.,24.0,0.,24.0,0.,24.0
1979-07-26 21:51:45.600 ,3,0,0.,24.0,0.,24.0,0.,24.0,0.,24.0
1979-07-26 21:52:09.600 ,4,1,0.,24.0,0.,24.0,0.,24.0,0.,24.0
1979-07-26 21:52:33.600 ,4,0,0.,24.0,0.,24.0,0.,24.0,0.,24.0
1979-07-26 21:52:57.600 ,5,1,0.,24.0,0.,24.0,0.,24.0,0.,24.0
1979-07-26 21:53:21.600 ,5,0,0.,24.0,0.,24.0,1.,24.0,0.,24.0
1979-07-26 21:53:45.600 ,6,1,0.,24.0,0.,24.0,0.,24.0,0.,24.0
1979-07-26 21:54:09.600 ,6,0,0.,24.0,0.,24.0,0.,24.0,0.,24.0
1979-07-26 21:54:33.600 ,7,0,8.,24.0,0.,24.0,0.,24.0,0.,24.0
1979-07-26 21:54:57.600 ,7,0,44.,24.0,0.,24.0,0.,24.0,0.,24.0
1979-07-26 21:55:21.600 ,5,1,14.,24.0,0.,24.0,0.,24.0,0.,24.0
1979-07-26 21:55:45.600 ,1,1,0.,24.0,0.,24.0,0.,24.0,0.,24.0
1979-07-26 21:56:09.600 ,2,1,1.,24.0,0.,24.0,0.,24.0,0.,24.0
1979-07-26 21:56:33.600 ,6,1,0.,24.0,0.,24.0,1.,24.0,0.,24.0
1979-07-26 21:56:57.600 ,5,1,15.,24.0,0.,24.0,1.,24.0,0.,24.0
1979-07-26 21:57:21.600 ,1,1,0.,24.0,0.,24.0,0.,24.0,0.,24.0
1979-07-26 21:57:45.600 ,2,1,0.,24.0,0.,24.0,1.,24.0,0.,24.0
1979-07-26 21:58:09.600 ,6,1,0.,24.0,0.,24.0,1.,24.0,0.,24.0
1979-07-26 21:58:33.600 ,5,1,11.,24.0,0.,24.0,1.,24.0,0.,24.0
1979-07-26 21:58:57.600 ,1,1,0.,24.0,0.,24.0,1.,24.0,0.,24.0
1979-07-26 21:59:21.600 ,2,1,0.,24.0,0.,24.0,0.,24.0,0.,24.0
1979-07-26 21:59:45.600 ,6,1,0.,24.0,0.,24.0,0.,24.0,0.,24.0
1979-07-26 22:00:09.600 ,5,1,18.,24.0,0.,24.0,1.,24.0,0.,24.0
1979-07-26 22:00:33.600 ,1,1,0.,24.0,0.,24.0,1.,24.0,0.,24.0
1979-07-26 22:00:57.600 ,2,1,0.,24.0,0.,24.0,0.,24.0,0.,24.0
1979-07-26 22:01:21.600 ,6,1,0.,24.0,0.,24.0,0.,24.0,0.,24.0
1979-07-26 22:01:45.600 ,5,1,22.,24.0,0.,24.0,0.,24.0,0.,24.0
1979-07-26 22:02:09.600 ,1,1,0.,24.0,0.,24.0,0.,24.0,0.,24.0
1979-07-26 22:02:33.600 ,2,1,0.,24.0,0.,24.0,1.,24.0,0.,24.0
1979-07-26 22:02:57.600 ,6,1,0.,24.0,0.,24.0,0.,24.0,0.,24.0
1979-07-26 22:03:21.600 ,5,1,15.,24.0,0.,24.0,0.,24.0,0.,24.0
1979-07-26 22:03:45.600 ,1,1,0.,24.0,0.,24.0,0.,24.0,0.,24.0
1979-07-26 22:04:09.600 ,2,1,0.,24.0,0.,24.0,1.,24.0,0.,24.0
1979-07-26 22:04:33.600 ,6,1,0.,24.0,0.,24.0,0.,24.0,0.,24.0
1979-07-26 22:05:45.600 ,0,0,0.,24.0,0.,24.0,0.,24.0,0.,24.0
1979-07-26 22:06:09.600 ,0,0,0.,24.0,0.,24.0,1.,24.0,0.,24.0
1979-07-26 22:06:33.600 ,5,1,14.,24.0,0.,24.0,0.,24.0,0.,24.0
1979-07-26 22:06:57.600 ,5,0,0.,24.0,0.,24.0,0.,24.0,0.,24.0
1979-07-26 22:07:21.600 ,4,1,0.,24.0,0.,24.0,0.,24.0,0.,24.0
1979-07-26 22:07:45.600 ,4,0,0.,24.0,1.,24.0,0.,24.0,0.,24.0
1979-07-26 22:08:09.600 ,3,1,0.,24.0,0.,24.0,0.,24.0,0.,24.0
1979-07-26 22:08:33.600 ,3,0,0.,24.0,0.,24.0,1.,24.0,0.,24.0
1979-07-26 22:08:57.600 ,2,1,0.,24.0,0.,24.0,0.,24.0,0.,24.0
1979-07-26 22:09:21.600 ,2,0,0.,24.0,0.,24.0,0.,24.0,0.,24.0
1979-07-26 22:09:45.600 ,1,1,0.,24.0,1.,24.0,0.,24.0,0.,24.0
1979-07-26 22:10:09.600 ,1,0,0.,24.0,0.,24.0,1.,24.0,0.,24.0
1979-07-26 22:10:33.600 ,0,1,0.,24.0,0.,24.0,0.,24.0,0.,24.0
1979-07-26 22:10:57.600 ,0,0,0.,24.0,0.,24.0,1.,24.0,0.,24.0
1979-07-26 22:11:21.600 ,0,1,0.,24.0,0.,24.0,0.,24.0,0.,24.0
1979-07-26 22:11:45.600 ,0,0,0.,24.0,0.,24.0,0.,24.0,0.,24.0
1979-07-26 22:12:09.600 ,1,1,0.,24.0,0.,24.0,0.,24.0,0.,24.0
1979-07-26 22:12:33.600 ,1,0,0.,24.0,0.,24.0,0.,24.0,0.,24.0
1979-07-26 22:12:57.600 ,2,1,0.,24.0,0.,24.0,1.,24.0,0.,24.0
1979-07-26 22:13:21.600 ,2,0,0.,24.0,0.,24.0,0.,24.0,0.,24.0
1979-07-26 22:13:45.600 ,3,1,0.,24.0,0.,24.0,0.,24.0,0.,24.0
1979-07-26 22:14:09.600 ,3,0,0.,24.0,0.,24.0,0.,24.0,0.,24.0
1979-07-26 22:14:33.600 ,4,1,0.,24.0,0.,24.0,0.,24.0,0.,24.0
1979-07-26 22:14:57.600 ,4,0,1.,24.0,0.,24.0,1.,24.0,0.,24.0
1979-07-26 22:15:21.600 ,5,1,0.,24.0,0.,24.0,0.,24.0,0.,24.0
1979-07-26 22:15:45.600 ,5,0,0.,24.0,0.,24.0,0.,24.0,0.,24.0
1979-07-26 22:16:09.600 ,6,1,1.,24.0,0.,24.0,0.,24.0,0.,24.0
1979-07-26 22:16:33.600 ,6,0,0.,24.0,1.,24.0,0.,24.0,0.,24.0
1979-07-26 22:16:57.600 ,7,1,4.,24.0,0.,24.0,0.,24.0,0.,24.0
1979-07-26 22:17:21.600 ,7,0,27.,24.0,0.,24.0,0.,24.0,0.,24.0
1979-07-26 22:17:45.600 ,7,1,27.,24.0,0.,24.0,1.,24.0,0.,24.0
1979-07-26 22:18:09.600 ,7,0,41.,24.0,0.,24.0,0.,24.0,0.,24.0
1979-07-26 22:18:33.600 ,6,1,22.,24.0,0.,24.0,0.,24.0,0.,24.0
1979-07-26 22:18:57.600 ,6,0,0.,24.0,0.,24.0,1.,24.0,0.,24.0
1979-07-26 22:19:21.600 ,5,1,0.,24.0,0.,24.0,0.,24.0,0.,24.0
1979-07-26 22:19:45.600 ,5,0,0.,24.0,0.,24.0,0.,24.0,0.,24.0
1979-07-26 22:20:09.600 ,4,1,0.,24.0,0.,24.0,0.,24.0,0.,24.0
1979-07-26 22:20:33.600 ,4,0,1.,24.0,0.,24.0,0.,24.0,0.,24.0
1979-07-26 22:20:57.600 ,3,1,0.,24.0,0.,24.0,0.,24.0,0.,24.0
1979-07-26 22:21:21.600 ,3,0,0.,24.0,0.,24.0,0.,24.0,0.,24.0
1979-07-26 22:21:45.600 ,2,1,0.,24.0,0.,24.0,0.,24.0,0.,24.0
1979-07-26 22:22:09.600 ,2,0,1.,24.0,0.,24.0,1.,24.0,0.,24.0
1979-07-26 22:22:33.600 ,1,1,0.,24.0,0.,24.0,1.,24.0,0.,24.0
1979-07-26 22:22:57.600 ,1,0,0.,24.0,0.,24.0,0.,24.0,0.,24.0
1979-07-26 22:23:21.600 ,0,1,0.,24.0,0.,24.0,0.,24.0,0.,24.0
1979-07-26 22:23:45.600 ,0,0,0.,24.0,0.,24.0,0.,24.0,0.,24.0
1979-07-26 22:24:09.600 ,0,1,0.,24.0,0.,24.0,0.,24.0,0.,24.0
1979-07-26 22:24:33.600 ,0,0,0.,24.0,0.,24.0,0.,24.0,0.,24.0
1979-07-26 22:24:57.600 ,1,1,0.,24.0,0.,24.0,0.,24.0,0.,24.0
1979-07-26 22:25:21.600 ,0,0,0.,24.0,0.,24.0,0.,24.0,0.,24.0
1979-07-26 22:25:43.200 ,0,0,,0,,0,,0,,0
1979-07-26 22:25:45.600 ,2,1,0.,24.0,0.,24.0,0.,24.0,0.,24.0
1979-07-26 22:26:09.600 ,2,0,0.,24.0,0.,24.0,1.,24.0,0.,24.0
1979-07-26 22:26:33.600 ,3,1,0.,24.0,0.,24.0,0.,24.0,0.,24.0
1979-07-26 22:26:57.600 ,3,0,0.,24.0,0.,24.0,0.,24.0,0.,24.0
1979-07-26 22:27:21.600 ,4,1,0.,24.0,0.,24.0,0.,24.0,0.,24.0
1979-07-26 22:27:45.600 ,4,0,0.,24.0,0.,24.0,0.,24.0,0.,24.0
1979-07-26 22:28:09.600 ,5,1,0.,24.0,0.,24.0,0.,24.0,0.,24.0
1979-07-26 22:28:33.600 ,5,0,0.,24.0,0.,24.0,0.,24.0,0.,24.0
1979-07-26 22:28:57.600 ,6,1,0.,24.0,0.,24.0,0.,24.0,0.,24.0
1979-07-26 22:29:21.600 ,6,0,0.,24.0,0.,24.0,0.,24.0,0.,24.0
1979-07-26 22:29:45.600 ,7,1,10.,24.0,0.,24.0,1.,24.0,0.,24.0
1979-07-26 22:30:09.600 ,7,0,31.,24.0,1.,24.0,0.,24.0,0.,24.0
1979-07-26 22:30:33.600 ,7,1,31.,24.0,0.,24.0,0.,24.0,0.,24.0
1979-07-26 22:30:57.600 ,7,0,32.,24.0,0.,24.0,1.,24.0,0.,24.0
1979-07-26 22:31:21.600 ,6,1,20.,24.0,0.,24.0,0.,24.0,0.,24.0
1979-07-26 22:31:45.600 ,6,0,0.,24.0,0.,24.0,0.,24.0,0.,24.0
1979-07-26 22:32:09.600 ,5,1,0.,24.0,0.,24.0,1.,24.0,0.,24.0
1979-07-26 22:32:33.600 ,5,0,0.,24.0,0.,24.0,0.,24.0,0.,24.0
1979-07-26 22:32:57.600 ,4,1,0.,24.0,0.,24.0,0.,24.0,0.,24.0
1979-07-26 22:33:21.600 ,4,0,0.,24.0,0.,24.0,2.,24.0,0.,24.0
1979-07-26 22:33:45.600 ,3,1,0.,24.0,0.,24.0,0.,24.0,0.,24.0
1979-07-26 22:34:09.600 ,3,0,0.,24.0,0.,24.0,0.,24.0,0.,24.0
1979-07-26 22:34:33.600 ,2,1,0.,24.0,0.,24.0,0.,24.0,0.,24.0
1979-07-26 22:34:57.600 ,2,0,1.,24.0,0.,24.0,2.,24.0,0.,24.0
1979-07-26 22:35:21.600 ,1,1,0.,24.0,0.,24.0,1.,24.0,0.,24.0
1979-07-26 22:35:45.600 ,1,0,0.,24.0,0.,24.0,0.,24.0,0.,24.0
1979-07-26 22:36:09.600 ,0,1,0.,24.0,0.,24.0,0.,24.0,0.,24.0
1979-07-26 22:36:33.600 ,0,0,0.,24.0,0.,24.0,1.,24.0,0.,24.0
1979-07-26 22:36:57.600 ,0,1,0.,24.0,0.,24.0,1.,24.0,0.,24.0
1979-07-26 22:37:21.600 ,0,0,1.,24.0,0.,24.0,0.,24.0,0.,24.0
1979-07-26 22:37:45.600 ,1,1,0.,24.0,1.,24.0,1.,24.0,0.,24.0
1979-07-26 22:38:09.600 ,1,0,0.,24.0,0.,24.0,0.,24.0,0.,24.0
1979-07-26 22:38:33.600 ,2,1,0.,24.0,0.,24.0,0.,24.0,0.,24.0
1979-07-26 22:38:57.600 ,2,0,0.,24.0,0.,24.0,1.,24.0,0.,24.0
1979-07-26 22:39:21.600 ,3,1,0.,24.0,0.,24.0,3.,24.0,0.,24.0
1979-07-26 22:39:45.600 ,3,0,0.,24.0,0.,24.0,1.,24.0,0.,24.0
1979-07-26 22:40:09.600 ,4,1,0.,24.0,0.,24.0,1.,24.0,0.,24.0
1979-07-26 22:40:33.600 ,4,0,0.,24.0,0.,24.0,1.,24.0,0.,24.0
1979-07-26 22:40:57.600 ,5,1,0.,24.0,0.,24.0,0.,24.0,0.,24.0
1979-07-26 22:41:21.600 ,5,0,0.,24.0,0.,24.0,0.,24.0,0.,24.0
1979-07-26 22:41:45.600 ,6,1,0.,24.0,0.,24.0,1.,24.0,0.,24.0
1979-07-26 22:42:09.600 ,6,0,0.,24.0,0.,24.0,0.,24.0,0.,24.0
1979-07-26 22:42:33.600 ,7,0,5.,24.0,0.,24.0,1.,24.0,0.,24.0
1979-07-26 22:42:57.600 ,7,0,27.,24.0,0.,24.0,1.,24.0,0.,24.0
1979-07-26 22:43:21.600 ,5,1,12.,24.0,0.,24.0,1.,24.0,0.,24.0
1979-07-26 22:43:45.600 ,1,1,0.,24.0,0.,24.0,1.,24.0,0.,24.0
1979-07-26 22:44:09.600 ,2,1,0.,24.0,0.,24.0,0.,24.0,0.,24.0
1979-07-26 22:44:33.600 ,6,1,1.,24.0,0.,24.0,0.,24.0,0.,24.0
1979-07-26 22:44:57.600 ,5,1,17.,24.0,0.,24.0,1.,24.0,0.,24.0
1979-07-26 22:45:21.600 ,1,1,0.,24.0,0.,24.0,0.,24.0,0.,24.0
1979-07-26 22:45:45.600 ,2,1,0.,24.0,0.,24.0,0.,24.0,0.,24.0
1979-07-26 22:46:09.600 ,6,1,0.,24.0,0.,24.0,0.,24.0,0.,24.0
1979-07-26 22:46:33.600 ,5,1,24.,24.0,0.,24.0,1.,24.0,0.,24.0
1979-07-26 22:46:57.600 ,1,1,0.,24.0,0.,24.0,2.,24.0,0.,24.0
1979-07-26 22:47:21.600 ,2,1,0.,24.0,0.,24.0,3.,24.0,0.,24.0
1979-07-26 22:47:45.600 ,6,1,0.,24.0,0.,24.0,0.,24.0,0.,24.0
1979-07-26 22:48:09.600 ,5,1,17.,24.0,0.,24.0,0.,24.0,0.,24.0
1979-07-26 22:48:33.600 ,1,1,0.,24.0,0.,24.0,0.,24.0,0.,24.0
1979-07-26 22:48:57.600 ,2,1,0.,24.0,0.,24.0,1.,24.0,0.,24.0
1979-07-26 22:49:21.600 ,6,1,0.,24.0,0.,24.0,1.,24.0,0.,24.0
1979-07-26 22:49:45.600 ,5,1,13.,24.0,0.,24.0,0.,24.0,0.,24.0
1979-07-26 22:50:09.600 ,1,1,0.,24.0,0.,24.0,2.,24.0,0.,24.0
1979-07-26 22:50:33.600 ,2,1,0.,24.0,0.,24.0,0.,24.0,0.,24.0
1979-07-26 22:50:57.600 ,6,1,0.,24.0,0.,24.0,0.,24.0,0.,24.0
1979-07-26 22:51:21.600 ,5,1,17.,24.0,0.,24.0,1.,24.0,0.,24.0
1979-07-26 22:51:45.600 ,1,1,0.,24.0,0.,24.0,0.,24.0,0.,24.0
1979-07-26 22:52:09.600 ,2,1,0.,24.0,0.,24.0,1.,24.0,0.,24.0
1979-07-26 22:52:33.600 ,6,1,0.,24.0,0.,24.0,1.,24.0,0.,24.0
1979-07-26 22:52:57.600 ,5,1,18.,24.0,0.,24.0,0.,24.0,0.,24.0
1979-07-26 22:53:21.600 ,1,1,0.,24.0,0.,24.0,2.,24.0,0.,24.0
1979-07-26 22:53:45.600 ,0,0,0.,24.0,0.,24.0,0.,24.0,0.,24.0
1979-07-26 22:54:09.600 ,0,0,0.,24.0,0.,24.0,3.,24.0,0.,24.0
1979-07-26 22:54:33.600 ,5,1,20.,24.0,0.,24.0,0.,24.0,0.,24.0
1979-07-26 22:54:57.600 ,5,0,0.,24.0,0.,24.0,2.,24.0,0.,24.0
1979-07-26 22:55:21.600 ,4,1,0.,24.0,0.,24.0,1.,24.0,0.,24.0
1979-07-26 22:55:45.600 ,4,0,0.,24.0,0.,24.0,1.,24.0,0.,24.0
1979-07-26 22:56:09.600 ,3,1,0.,24.0,0.,24.0,0.,24.0,0.,24.0
1979-07-26 22:56:33.600 ,3,0,0.,24.0,0.,24.0,0.,24.0,0.,24.0
1979-07-26 22:56:57.600 ,2,1,0.,24.0,0.,24.0,1.,24.0,0.,24.0
1979-07-26 22:57:21.600 ,2,0,0.,24.0,0.,24.0,1.,24.0,0.,24.0
1979-07-26 22:57:45.600 ,1,1,0.,24.0,1.,24.0,0.,24.0,0.,24.0
1979-07-26 22:58:09.600 ,1,0,0.,24.0,0.,24.0,0.,24.0,0.,24.0
1979-07-26 22:58:33.600 ,0,1,0.,24.0,0.,24.0,1.,24.0,0.,24.0
1979-07-26 22:58:57.600 ,0,0,0.,24.0,0.,24.0,0.,24.0,0.,24.0
1979-07-26 22:59:21.600 ,0,1,0.,24.0,0.,24.0,0.,24.0,0.,24.0
1979-07-26 22:59:45.600 ,0,0,0.,24.0,0.,24.0,2.,24.0,0.,24.0
1979-07-26 23:00:09.600 ,1,1,0.,24.0,0.,24.0,0.,24.0,0.,24.0
1979-07-26 23:00:33.600 ,1,0,0.,24.0,0.,24.0,0.,24.0,0.,24.0
1979-07-26 23:00:57.600 ,2,1,0.,24.0,0.,24.0,2.,24.0,0.,24.0
1979-07-26 23:01:21.600 ,2,0,0.,24.0,0.,24.0,1.,24.0,0.,24.0
1979-07-26 23:01:45.600 ,3,1,0.,24.0,0.,24.0,0.,24.0,0.,24.0
1979-07-26 23:02:09.600 ,3,0,0.,24.0,0.,24.0,1.,24.0,0.,24.0
1979-07-26 23:02:33.600 ,4,1,0.,24.0,1.,24.0,1.,24.0,0.,24.0
1979-07-26 23:02:57.600 ,4,0,0.,24.0,0.,24.0,1.,24.0,0.,24.0
1979-07-26 23:03:21.600 ,5,1,0.,24.0,0.,24.0,0.,24.0,0.,24.0
1979-07-26 23:03:45.600 ,5,0,0.,24.0,0.,24.0,1.,24.0,0.,24.0
1979-07-26 23:04:09.600 ,6,1,0.,24.0,0.,24.0,2.,24.0,0.,24.0
1979-07-26 23:04:33.600 ,6,0,0.,24.0,0.,24.0,0.,24.0,0.,24.0
1979-07-26 23:04:57.600 ,0,0,9.,24.0,0.,24.0,1.,24.0,0.,24.0
1979-07-26 23:05:21.600 ,0,0,35.,24.0,0.,24.0,0.,24.0,0.,24.0
1979-07-26 23:06:09.600 ,7,0,35.,24.0,0.,24.0,1.,24.0,0.,24.0
1979-07-26 23:06:33.600 ,6,1,33.,24.0,0.,24.0,0.,24.0,0.,24.0
1979-07-26 23:06:57.600 ,6,0,0.,24.0,0.,24.0,0.,24.0,0.,24.0
1979-07-26 23:08:09.600 ,0,0,0.,24.0,0.,24.0,0.,24.0,0.,24.0
1979-07-26 23:08:33.600 ,0,0,1.,24.0,0.,24.0,2.,24.0,0.,24.0
1979-07-26 23:08:57.600 ,3,1,0.,24.0,0.,24.0,0.,24.0,0.,24.0
1979-07-26 23:09:21.600 ,3,0,0.,24.0,0.,24.0,0.,24.0,0.,24.0
1979-07-26 23:09:45.600 ,2,1,1.,24.0,0.,24.0,0.,24.0,0.,24.0
1979-07-26 23:10:09.600 ,2,0,0.,24.0,0.,24.0,1.,24.0,0.,24.0
1979-07-26 23:10:33.600 ,1,1,0.,24.0,0.,24.0,1.,24.0,0.,24.0
1979-07-26 23:10:57.600 ,1,0,0.,24.0,0.,24.0,1.,24.0,0.,24.0
1979-07-26 23:11:21.600 ,0,1,0.,24.0,0.,24.0,0.,24.0,0.,24.0
1979-07-26 23:11:45.600 ,0,0,0.,24.0,0.,24.0,0.,24.0,0.,24.0
1979-07-26 23:12:09.600 ,0,1,0.,24.0,0.,24.0,0.,24.0,0.,24.0
1979-07-26 23:12:33.600 ,0,0,0.,24.0,0.,24.0,1.,24.0,0.,24.0
1979-07-26 23:12:57.600 ,1,1,0.,24.0,0.,24.0,1.,24.0,0.,24.0
1979-07-26 23:13:21.600 ,1,0,0.,24.0,0.,24.0,3.,24.0,0.,24.0
1979-07-26 23:13:45.600 ,2,1,0.,24.0,0.,24.0,0.,24.0,0.,24.0
1979-07-26 23:14:09.600 ,2,0,0.,24.0,0.,24.0,2.,24.0,0.,24.0
1979-07-26 23:14:33.600 ,3,1,0.,24.0,0.,24.0,1.,24.0,0.,24.0
1979-07-26 23:14:57.600 ,3,0,0.,24.0,0.,24.0,0.,24.0,0.,24.0
1979-07-26 23:15:21.600 ,4,1,0.,24.0,0.,24.0,2.,24.0,0.,24.0
1979-07-26 23:15:45.600 ,4,0,0.,24.0,0.,24.0,1.,24.0,0.,24.0
1979-07-26 23:16:09.600 ,5,1,0.,24.0,0.,24.0,1.,24.0,0.,24.0
1979-07-26 23:16:33.600 ,5,0,0.,24.0,0.,24.0,0.,24.0,0.,24.0
1979-07-26 23:16:57.600 ,6,1,1.,24.0,0.,24.0,0.,24.0,0.,24.0
1979-07-26 23:17:21.600 ,6,0,0.,24.0,1.,24.0,0.,24.0,0.,24.0
1979-07-26 23:17:45.600 ,7,1,8.,24.0,0.,24.0,0.,24.0,0.,24.0
1979-07-26 23:18:09.600 ,7,0,21.,24.0,0.,24.0,2.,24.0,0.,24.0
1979-07-26 23:18:33.600 ,7,1,30.,24.0,0.,24.0,1.,24.0,0.,24.0
1979-07-26 23:18:57.600 ,7,0,30.,24.0,0.,24.0,0.,24.0,0.,24.0
1979-07-26 23:19:21.600 ,6,1,26.,24.0,0.,24.0,0.,24.0,0.,24.0
1979-07-26 23:19:45.600 ,6,0,0.,24.0,0.,24.0,0.,24.0,0.,24.0
1979-07-26 23:20:09.600 ,5,1,0.,24.0,0.,24.0,0.,24.0,0.,24.0
1979-07-26 23:20:33.600 ,5,0,0.,24.0,0.,24.0,0.,24.0,0.,24.0
1979-07-26 23:20:57.600 ,4,1,0.,24.0,0.,24.0,0.,24.0,0.,24.0
1979-07-26 23:21:21.600 ,4,0,0.,24.0,0.,24.0,0.,24.0,0.,24.0
1979-07-26 23:21:45.600 ,3,1,1.,24.0,0.,24.0,0.,24.0,0.,24.0
1979-07-26 23:22:09.600 ,3,0,0.,24.0,0.,24.0,1.,24.0,0.,24.0
1979-07-26 23:22:33.600 ,2,1,0.,24.0,0.,24.0,0.,24.0,0.,24.0
1979-07-26 23:22:57.600 ,2,0,0.,24.0,0.,24.0,0.,24.0,0.,24.0
1979-07-26 23:23:21.600 ,1,1,1.,24.0,0.,24.0,0.,24.0,0.,24.0
1979-07-26 23:23:45.600 ,1,0,0.,24.0,0.,24.0,0.,24.0,0.,24.0
1979-07-26 23:24:09.600 ,0,1,0.,24.0,0.,24.0,1.,24.0,0.,24.0
1979-07-26 23:24:33.600 ,0,0,0.,24.0,0.,24.0,0.,24.0,0.,24.0
1979-07-26 23:24:57.600 ,0,1,0.,24.0,0.,24.0,0.,24.0,0.,24.0
1979-07-26 23:25:21.600 ,0,0,0.,24.0,0.,24.0,0.,24.0,0.,24.0
1979-07-26 23:25:45.600 ,1,1,0.,24.0,0.,24.0,0.,24.0,0.,24.0
1979-07-26 23:26:09.600 ,1,0,0.,24.0,0.,24.0,0.,24.0,0.,24.0
1979-07-26 23:26:33.600 ,2,1,0.,24.0,0.,24.0,0.,24.0,0.,24.0
1979-07-26 23:26:57.600 ,2,0,0.,24.0,0.,24.0,1.,24.0,0.,24.0
1979-07-26 23:27:21.600 ,3,1,0.,24.0,0.,24.0,0.,24.0,0.,24.0
1979-07-26 23:27:45.600 ,3,0,0.,24.0,0.,24.0,1.,24.0,0.,24.0
1979-07-26 23:28:09.600 ,4,1,0.,24.0,0.,24.0,0.,24.0,0.,24.0
1979-07-26 23:28:33.600 ,4,0,0.,24.0,0.,24.0,0.,24.0,0.,24.0
1979-07-26 23:28:57.600 ,5,1,0.,24.0,0.,24.0,0.,24.0,0.,24.0
1979-07-26 23:29:21.600 ,5,0,0.,24.0,0.,24.0,0.,24.0,0.,24.0
1979-07-26 23:29:45.600 ,6,1,0.,24.0,0.,24.0,0.,24.0,0.,24.0
1979-07-26 23:30:09.600 ,6,0,0.,24.0,0.,24.0,1.,24.0,0.,24.0
1979-07-26 23:30:33.600 ,7,0,8.,24.0,0.,24.0,0.,24.0,0.,24.0
1979-07-26 23:30:57.600 ,7,0,37.,24.0,0.,24.0,1.,24.0,0.,24.0
1979-07-26 23:31:21.600 ,5,1,15.,24.0,0.,24.0,0.,24.0,0.,24.0
1979-07-26 23:31:45.600 ,1,1,0.,24.0,0.,24.0,1.,24.0,0.,24.0
1979-07-26 23:32:09.600 ,2,1,0.,24.0,0.,24.0,0.,24.0,0.,24.0
1979-07-26 23:32:33.600 ,6,1,0.,24.0,0.,24.0,0.,24.0,0.,24.0
1979-07-26 23:32:57.600 ,5,1,13.,24.0,0.,24.0,0.,24.0,0.,24.0
1979-07-26 23:33:21.600 ,1,1,0.,24.0,0.,24.0,0.,24.0,0.,24.0
1979-07-26 23:33:45.600 ,2,1,0.,24.0,0.,24.0,0.,24.0,0.,24.0
1979-07-26 23:34:09.600 ,6,1,0.,24.0,0.,24.0,1.,24.0,0.,24.0
1979-07-26 23:34:33.600 ,5,1,22.,24.0,0.,24.0,1.,24.0,0.,24.0
1979-07-26 23:34:57.600 ,1,1,0.,24.0,0.,24.0,1.,24.0,0.,24.0
1979-07-26 23:35:21.600 ,2,1,0.,24.0,0.,24.0,1.,24.0,0.,24.0
1979-07-26 23:35:45.600 ,6,1,0.,24.0,0.,24.0,1.,24.0,0.,24.0